• Processing (Info)

  • MPEC 2010-A64 : 2010 AL30

    The following Minor Planet Electronic Circular may be linked-to from your own Web pages, but must not otherwise be redistributed electronically.

    A form allowing access to any MPEC is at the bottom of this page.


    Read MPEC 2010-A63 Read MPEC 2010-A65


    M.P.E.C. 2010-A64                                Issued 2010 Jan. 12, 22:27 UT
    
         The Minor Planet Electronic Circulars contain information on unusual
             minor planets and routine data on comets.  They are published
       on behalf of Commission 20 of the International Astronomical Union by the
              Minor Planet Center, Smithsonian Astrophysical Observatory,
                              Cambridge, MA 02138, U.S.A.
    
                 Prepared using the Tamkin Foundation Computer Network
    
                                  MPC@CFA.HARVARD.EDU
              URL http://www.cfa.harvard.edu/iau/mpc.html  ISSN 1523-6714
    
                                       2010 AL30
    
                               Revision to MPEC 2010-A63
    
    Additional Observations:
         K10A30L  C2010 01 12.42414 07 34 10.97 +09 43 50.4          16.1 C EA064H10
         K10A30L  C2010 01 12.42591 07 34 07.10 +09 43 57.7          16.3 C EA064H10
         K10A30L  C2010 01 12.44341 07 33 29.60 +09 45 05.5          16.0 C EA064H10
         K10A30L  C2010 01 12.44509 07 33 25.98 +09 45 12.1          16.1 C EA064H10
         K10A30L  C2010 01 12.44678 07 33 22.28 +09 45 18.3          15.8 C EA064H10
         K10A30L  C2010 01 12.88672 07 13 23.66 +10 34 26.0          15.4 R EA064113
         K10A30L  C2010 01 12.88759 07 13 18.90 +10 34 36.8          15.4 R EA064113
         K10A30L  C2010 01 12.88810 07 13 16.05 +10 34 43.3          15.1 R EA064113
         K10A30L  C2010 01 12.88862 07 13 13.28 +10 34 49.4          15.4 R EA064113
         K10A30L  C2010 01 12.88895 07 13 11.35 +10 34 53.6          15.3 R EA064113
         K10A30L  C2010 01 12.88913 07 13 10.40 +10 34 55.7          15.4 R EA064113
         K10A30L  C2010 01 12.89119 07 12 59.00 +10 35 21.4          15.3 R EA064113
         K10A30L  C2010 01 12.89136 07 12 58.10 +10 35 23.6          15.3 R EA064113
         K10A30L  C2010 01 12.89171 07 12 56.11 +10 35 27.7          15.1 R EA064113
         K10A30L  C2010 01 12.89308 07 12 48.48 +10 35 44.8          15.2 R EA064113
         K10A30L tC2010 01 12.89469 07 12 38.58 +10 37 05.0                 EA064046
    
    Observer details:
    046 Klet.  Observers M. Honkova, M. Tichy, J. Ticha, M. Kocer.  Measurer
        M. Honkova.  0.57-m f/5.2 reflector + CCD.
    113 Volkssternwarte Drebach, Schoenbrunn.  Observer G. Lehmann.  0.5-m f/6.7
        reflector + CCD.
    H10 Tzec Maun Observatory, Mayhill.  Observers P. Concari, S. Foglia, G. Galli,
        M. Tombelli.  0.18-m f/2.8 Newtonian reflector + CCD.
    
    Orbital elements:
    2010 AL30                                                Earth MOID = 0.0000 AU
    Epoch 2010 Jan. 4.0 TT = JDT 2455200.5                  MPC
    M 281.43686              (2000.0)            P               Q
    n   0.98334652     Peri.  104.60248     -0.78961550     +0.61036841
    a   1.0015324      Node   113.05294     -0.58600435     -0.71972518
    e   0.3058439      Incl.    3.92041     -0.18195126     -0.33082634
    P   1.00           H   27.1           G   0.15           U   5
    Residuals in seconds of arc
    100110 704  0.6+  0.7-    100112 F65  0.0   0.0     100112 F65  0.0   0.1-
    100110 704  0.6+  0.1-    100112 F65  0.2+  0.1-    100112 F65  0.2-  0.1-
    100110 704  0.0   0.9-    100112 F65  0.3+  0.1-    100112 415  0.4-  0.2-
    100110 704  0.7+  0.6-    100112 H10  0.9+  0.0     100112 415  0.4-  0.4+
    100110 704  0.0   0.7-    100112 F65  0.1+  0.2-    100112 415  0.2-  0.2+
    100111 G96  0.2-  0.1+    100112 F65  0.1+  0.2-    100112 F65  0.1+  0.1-
    100111 G96  0.3-  0.3+    100112 H10  0.9+  0.0     100112 F65  0.1+  0.0
    100111 G96  0.2-  0.2+    100112 F65  0.2+  0.3-    100112 F65  0.0   0.0
    100111 G96  0.2-  0.0     100112 F65  0.0   0.3-    100112 415  1.1-  0.5+
    100111 G96  0.1-  0.1+    100112 H10  0.2+  0.3-    100112 F65  0.0   0.1-
    100111 E16  0.1+  0.0     100112 F65  0.0   0.5-    100112 F65  0.1-  0.0
    100111 E16  0.1+  0.3+    100112 F65  0.2+  0.5-    100112 F65  0.1-  0.0
    100111 E16  0.2+  0.8+    100112 F65  0.1+  0.0     100112 F65  0.2+  0.1-
    100111 E16  0.1+  0.4+    100112 F65  0.0   0.0     100112 F65  0.0   0.1-
    100111 E16  0.0   0.6+    100112 F65  0.0   0.0     100112 F65  0.1-  0.0
    100111 E16  0.2-  0.7+    100112 F65  0.2+  0.1-    100112 F65  0.1+  0.0
    100111 143  0.0   0.1-    100112 F65  0.3+  0.0     100112 F65  0.1-  0.0
    100111 143  0.1+  0.1-    100112 F65  0.1-  0.1+    100112 F65  0.4+  0.0
    100111 143  0.1+  0.2-    100112 F65  0.0   0.0     100112 F65  0.0   0.1-
    100111 C12  0.9-  1.1-    100112 F65  0.3+  0.0     100112 F65  0.1-  0.0
    100111 C12  0.8-  0.4+    100112 F65  0.2+  0.0     100112 F65  0.1+  0.1-
    100111 C12  0.1+  0.0     100112 F65  0.1+  0.0     100112 F65  0.1+  0.1-
    100111 213  0.2-  0.3+    100112 F65  0.1-  0.1+    100112 F65  0.3+  0.2-
    100111 213  0.3-  0.1+    100112 F65  0.2+  0.0     100112 F65  0.3+  0.1-
    100111 213  0.1+  0.4-    100112 F65  0.1+  0.0     100112 F65  0.1+  0.1-
    100111 213  0.2-  0.1+    100112 H01  0.0   0.1-    100112 F65  0.4+  0.2-
    100112 H01  0.1-  0.2+    100112 H01  0.0   0.1-    100112 F65  0.2+  0.1-
    100112 H01  0.1-  0.2+    100112 F65  0.2+  0.1-    100112 E10  0.1+  0.1+
    100112 H01  0.1-  0.1+    100112 F65  0.2+  0.1-    100112 E10  0.3+  0.1-
    100112 H01  0.2-  0.1+    100112 415  0.3-  0.1+    100112 E10  0.1+  0.1-
    100112 H01  0.1-  0.1+    100112 F65  0.3+  0.1-    100112 E10  0.1+  0.1-
    100112 718  0.1+  0.4-    100112 F65  0.1-  0.0     100112 E10  0.3+  0.1-
    100112 718  0.5-  0.5+    100112 F65  0.0   0.0     100112 E10  0.3+  0.1+
    100112 718  0.4-  0.4+    100112 F65  0.1-  0.1+    100112 E10  0.1+  0.0
    100112 926  0.2+  0.0     100112 F65  0.0   0.0     100112 415  0.5-  0.0
    100112 926  0.1+  0.2+    100112 415  0.5-  0.3+    100112 415  0.3+  0.1+
    100112 926  0.1+  0.1+    100112 F65  0.3+  0.0     100112 415  0.5-  0.3+
    100112 926  0.3-  0.1+    100112 H01  0.1-  0.1-    100112 415  0.5+  0.3+
    100112 926  0.1+  0.2-    100112 F65  0.2+  0.1-    100112 415  0.2-  0.3+
    100112 926  0.3-  0.0     100112 F65  0.2+  0.1-    100112 415  0.2-  0.2-
    100112 926  0.1+  0.0     100112 415  0.5-  0.1+    100112 415  0.4-  0.3+
    100112 H06  0.5+  0.4-    100112 F65  0.2+  0.0     100112 415  0.1-  0.1+
    100112 H06  0.3+  0.3-    100112 F65  0.2+  0.0     100112 415  0.1+  0.3+
    100112 H06  0.6+  0.0     100112 F65  0.4-  0.0     100112 415  0.1+  0.1+
    100112 H06  0.5+  0.1+    100112 F65  0.2+  0.1-    100112 415  0.0   0.0
    100112 H06  1.2+  0.3+    100112 F65  0.1+  0.0     100112 113  0.4+  0.0
    100112 H10  0.5+  0.2-    100112 F65  0.5+  0.2-    100112 113  0.5+  0.0
    100112 H10  0.5+  0.1-    100112 F65  0.1+  0.1-    100112 113  0.3-  0.2+
    100112 H10  0.6+  0.1-    100112 F65  0.3+  0.1-    100112 113  1.0+  0.1-
    100112 H10  0.1+  0.0     100112 F65  0.5+  0.2-    100112 113  0.6-  0.0
    100112 H10  1.5+  0.6-    100112 F65  0.1+  0.1-    100112 113  0.0   0.2-
    100112 H10  0.1+  0.1-    100112 F65  0.3+  0.2-    100112 113  0.0   0.1-
    100112 F65  0.1+  0.0     100112 F65  0.1+  0.1-    100112 113  0.6+  0.0
    100112 F65  0.2+  0.1-    100112 F65  0.0   0.1+    100112 113  0.1-  0.3-
    100112 F65  0.5+  0.1-    100112 F65  0.1+  0.0     100112 113  0.0   0.3-
    100112 F65  0.4+  0.1-    100112 F65  0.3+  0.2-    100112 046  0.7-  0.6-
    
    Ephemeris:
    2010 AL30                a,e,i = 1.00, 0.31, 4                   q = 0.6952
    Date    TT    R. A. (2000) Decl.     Delta      r     Elong.  Phase     V
    2010 01 12.0  07 43.96   +09 26.4    0.00863  0.992   167.4    12.4    17.5
    2010 01 12.1  07 42.35   +09 31.4    0.00808  0.991   167.6    12.3    17.4
    2010 01 12.2  07 40.50   +09 37.3    0.00752  0.991   167.8    12.1    17.2
    2010 01 12.3  07 38.35   +09 44.0    0.00697  0.990   168.0    11.9    17.0
    2010 01 12.4  07 35.82   +09 51.8    0.00641  0.990   168.2    11.7    16.8
    2010 01 12.5  07 32.82   +10 01.0    0.00586  0.989   168.4    11.6    16.6
    2010 01 12.6  07 29.19   +10 12.1    0.00531  0.989   168.5    11.5    16.4
    2010 01 12.7  07 24.70   +10 25.4    0.00476  0.988   168.5    11.5    16.2
    2010 01 12.8  07 19.04   +10 42.0    0.00421  0.988   168.3    11.6    15.9
    2010 01 12.9  07 11.66   +11 02.9    0.00366  0.987   167.9    12.1    15.6
    2010 01 13.0  07 01.68   +11 30.1    0.00312  0.987   166.8    13.1    15.3
    2010 01 13.1  06 47.49   +12 06.4    0.00258  0.986   164.7    15.2    15.0
    2010 01 13.2  06 25.91   +12 56.2    0.00206  0.986   160.7    19.2    14.6
    2010 01 13.3  05 50.02   +14 03.5    0.00157  0.985   153.1    26.8    14.3
    2010 01 13.4  04 43.90   +15 13.7    0.00114  0.984   138.1    41.9    14.0
    2010 01 13.5  02 42.15   +14 13.6    0.00088  0.984   109.5    70.5    14.3
    2010 01 13.6  00 15.43   +07 58.5    0.00094  0.983    73.6   106.3    15.9
    2010 01 13.7  22 41.24   +01 56.9    0.00128  0.983    50.0   130.0    18.3
    2010 01 13.8  21 51.67   -01 26.9    0.00174  0.982    37.6   142.3    20.4
    2010 01 13.9  21 23.49   -03 21.4    0.00224  0.982    30.7   149.2    22.1
    2010 01 14.0  21 05.78   -04 31.8    0.00277  0.981    26.5   153.5    23.4
    
    Gareth V. Williams           (C) Copyright 2010 MPC           M.P.E.C. 2010-A64
    

    Read MPEC 2010-A63 Read MPEC 2010-A65


    MPEC number:

    Enter an MPEC number in one of the following forms:

    • 1997-B01 (the full form)
    • J97B01 (the packed version of the full form)
    • B01 (the abbreviated form)